MDT,Max TemperatureF,Mean TemperatureF,Min TemperatureF,Max Dew PointF,MeanDew PointF,Min DewpointF,Max Humidity, Mean Humidity, Min Humidity, Max Sea Level PressureIn, Mean Sea Level PressureIn, Min Sea Level PressureIn, Max VisibilityMiles, Mean VisibilityMiles, Min VisibilityMiles, Max Wind SpeedMPH, Mean Wind SpeedMPH, Max Gust SpeedMPH,PrecipitationIn, CloudCover, Events, WindDirDegrees
2013-8-1,73,69,65,64,55,45,90,65,39,30.36,30.23,30.17,10,8,3,21,4,26,0.09,5,Rain-Thunderstorm,53
2013-8-2,87,74,61,64,58,53,91,62,32,30.23,30.16,30.08,10,8,5,9,4,,0.00,2,Rain-Thunderstorm,79
2013-8-3,90,77,64,60,55,49,79,52,25,30.25,30.19,30.13,10,8,5,20,6,20,0.00,1,Rain-Thunderstorm,104
2013-8-4,92,75,58,62,53,45,80,58,19,30.28,30.23,30.15,10,9,4,23,5,30,0.00,1,Rain-Thunderstorm,88
2013-8-5,84,74,63,59,54,47,81,54,26,30.25,30.18,30.08,10,8,5,13,5,17,0.00,1,Thunderstorm,70
2013-8-6,86,74,61,55,51,41,78,49,21,30.19,30.14,30.08,10,8,5,21,6,31,0.00,1,Rain-Thunderstorm,73
2013-8-7,82,72,62,54,50,40,71,50,24,30.17,30.13,30.07,10,7,5,13,5,17,0.00,1,Rain-Thunderstorm,77
2013-8-8,89,76,64,58,51,40,72,52,21,30.20,30.14,30.05,10,8,3,24,4,39,0.07,3,Rain-Thunderstorm,54
2013-8-9,85,70,54,57,48,40,83,51,22,30.24,30.19,30.13,10,9,7,17,5,20,0.00,1,Rain-Thunderstorm,66
2013-8-10,87,70,53,57,47,34,92,58,15,30.38,30.28,30.21,10,10,3,24,6,37,0.04,1,Rain-Thunderstorm,55
2013-8-11,86,68,49,52,46,33,94,56,15,30.35,30.27,30.14,10,10,7,8,3,,0.00,0,,63
2013-8-12,88,72,55,50,44,36,73,41,16,30.28,30.21,30.14,10,10,5,18,5,25,0.00,1,Thunderstorm,82
2013-8-13,91,73,55,48,42,28,71,39,11,30.30,30.22,30.14,10,10,7,15,6,21,0.00,0,,64
2013-8-14,93,74,55,43,38,26,57,31,9,30.28,30.21,30.13,10,9,5,18,6,26,0.00,0,,76
2013-8-15,96,75,54,42,34,23,56,27,8,30.26,30.19,30.12,10,9,5,15,6,26,0.00,0,,35
2013-8-16,97,76,54,41,33,25,48,25,8,30.29,30.20,30.12,10,9,5,12,5,17,0.00,0,,113
2013-8-17,97,78,58,47,37,32,46,26,11,30.26,30.18,30.10,10,9,7,22,6,33,0.00,0,,83
2013-8-18,93,77,61,48,46,42,56,35,17,30.26,30.19,30.13,10,8,5,15,5,18,0.00,0,Thunderstorm,106
2013-8-19,96,78,60,50,45,34,63,35,12,30.26,30.17,30.04,10,8,5,20,4,29,0.00,0,Thunderstorm,150
2013-8-20,96,78,61,53,47,40,60,37,14,30.19,30.15,30.05,10,8,5,28,6,36,0.00,0,Thunderstorm,67
2013-8-21,93,75,57,54,48,40,77,42,17,30.25,30.18,30.09,10,8,4,18,4,25,0.00,0,Thunderstorm,105
2013-8-22,94,81,68,54,48,43,57,37,17,30.28,30.18,30.08,10,9,7,16,4,22,0.00,1,Thunderstorm,166
2013-8-23,91,74,58,56,49,40,73,44,17,30.16,30.10,30.00,10,8,5,23,3,43,0.00,1,Thunderstorm,118
2013-8-24,87,76,64,55,50,41,65,46,20,30.22,30.16,30.11,10,7,4,17,5,29,0.00,3,Thunderstorm,100
2013-8-25,75,68,62,61,59,56,94,73,56,30.32,30.27,30.22,10,7,4,17,3,28,0.00,7,,213
2013-8-26,82,72,62,65,61,55,94,75,39,30.34,30.29,30.20,10,8,3,10,5,,0.07,5,,63
2013-8-27,89,74,59,61,57,50,94,62,28,30.29,30.20,30.10,10,7,4,14,4,20,0.00,1,Thunderstorm,248
2013-8-28,95,78,61,58,51,40,79,47,15,30.23,30.18,30.09,10,8,4,16,4,25,0.00,0,Thunderstorm,344
2013-8-29,97,78,60,54,49,38,75,42,13,30.29,30.23,30.15,10,8,5,17,4,24,0.00,0,Thunderstorm,172
2013-8-30,96,82,68,56,51,43,57,39,16,30.28,30.22,30.13,10,8,5,17,5,26,0.00,1,Thunderstorm,99
2013-8-31,95,79,63,56,51,45,69,41,18,30.22,30.15,30.04,10,8,5,17,6,21,0.00,1,Thunderstorm,105